sat.trackr.live / text

‹ back to catalog

STARLINK-2452

NORAD 48115 · 2021-027Z

PAYLOAD ACTIVE UNKNOWN

§ Identity

Operator
Country
US
Launch date
2021-04-07
Launch site
AFETR
Launch vehicle
Mass (kg)
RCS (m²)

Purposes: comms

External: N2YO · Heavens-Above · Gunter

§ Orbital elements

Epoch: 2026-09-20T04:56:15.605088Z

Period
94.01 min
Inclination
53.1603°
Eccentricity
0.0001062
Mean motion
15.31703668 rev/d
Perigee alt
470.0 km
Apogee alt
471.5 km
Semi-major
6,848.9 km
B*
3.6019e-5
RAAN
329.6730°
Arg perigee
81.0521°
Mean anomaly
279.0601°
Rev number
30,245

§ Raw data

STARLINK-24521 48115U 21027Z   26263.20573617  .00000753  00000+0  36019-4 0  99982 48115  53.1603 329.6730 0001062  81.0521 279.0601 15.31703668302454

JSON: /api/v1/satellites/48115 · /tle

For live sub-satellite position, see the globe view (requires WebGL).

§ Visibility from observer

Set your observer location to see the next 7 days of passes ≥ 10°. The values pass through the URL so the page stays shareable.

No JS? Fill the form by hand. The geolocation button needs JavaScript.